Regional Weather Roundup
Issued by NWS

Home | Current Version | Previous Version | Graphics & Text | Print | Product List | Glossary On
Versions: 1 2 3 4 5 6 7 8 9 10 11 12 13 14 15 16 17 18 19 20 21 22 23 24 25 26 27 28 29 30 31 32 33 34 35 36 37 38 39 40 41 42 43 44 45 46 47 48 49 50
000
ASUS43 KTOP 232059
RWRKS

WEATHER ROUNDUP FOR KANSAS
NATIONAL WEATHER SERVICE GOODLAND KS
400 PM CDT SAT SEP 23 2017

NOTE:  "FAIR" INDICATES FEW OR NO CLOUDS BELOW 12,000 FEET WITH NO
SIGNIFICANT WEATHER AND/OR OBSTRUCTIONS TO VISIBILITY.

KSZ001>006-013>018-027>032-041>047-232200-
NORTHWEST KANSAS

CITY           SKY/WX    TMP DP  RH WIND       PRES   REMARKS
GOODLAND       CLOUDY    62  52  69 N8        29.90S
HAYS           MOSUNNY   90  61  37 S23G35    29.82F
HILL CITY      MOSUNNY   91  60  35 S22G31    29.81F
RUSSELL        MOSUNNY   91  61  36 SE23G36   29.83F
$$

KSZ061>065-074>080-084>089-232200-
SOUTHWEST KANSAS

CITY           SKY/WX    TMP DP  RH WIND       PRES   REMARKS
DODGE CITY     MOSUNNY   89  58  34 S30G36    29.86F
ELKHART          N/A     79  65  62 SE18        N/A
GARDEN CITY    MOSUNNY   88  59  37 S29G37    29.84F
GREAT BEND     PTSUNNY   90  63  40 S29       29.85F
LIBERAL        PTSUNNY   83  62  49 S30G38    29.86F
$$

KSZ066>073-081>083-090>101-232200-
SOUTHEAST KANSAS

CITY           SKY/WX    TMP DP  RH WIND       PRES   REMARKS
CHANUTE        MOSUNNY   89  67  47 SE13      29.96F
COFFEYVILLE    PTSUNNY   90  67  46 SE7       29.94F
HUTCHINSON     MOSUNNY   92  62  36 SE18G29   29.89F
MEDICINE LODGE   N/A     90  59  35 S16G25    29.87F
NEWTON         MOSUNNY   89  63  41 S22G29    29.92F
PARSONS        SUNNY     90  64  42 S7        29.96F
WICHITA INTL   MOSUNNY   89  62  40 S16G29    29.90F
WICHITA JABRA  MOSUNNY   88  63  43 S17G28    29.91F
WINFIELD       SUNNY     90  64  42 SE16G24   29.93F
$$

KSZ007>012-019>026-033>040-048>060-102>105-232200-
NORTHEAST KANSAS

CITY           SKY/WX    TMP DP  RH WIND       PRES   REMARKS
CONCORDIA      MOSUNNY   87  64  46 S20G26    29.86F
EMPORIA        MOSUNNY   88  64  44 S16G23    29.93F
LAWRENCE       MOSUNNY   90  68  48 SE12      29.94F
MANHATTAN      PTSUNNY   93  63  36 S17G25    29.90F
OLATHE IND     SUNNY     88  68  51 S10       29.97F
OLATHE EXE     MOSUNNY   85  69  58 S12       29.97F
SALINA         MOSUNNY   93  59  31 S22G36    29.87F
TOPEKA BILLARD MOSUNNY   90  67  46 SE15      29.93F
TOPEKA FORBES  SUNNY     91  66  43 S15G23    29.94F
$$



USA.gov is the U.S. government's official web portal to all federal, state and local government web resources and services.